Regional Weather Roundup
Issued by NWS San Angelo, TX

Current Version | Previous Version | Text Only | Print | Product List | Glossary On
Versions: 1 2 3 4 5 6 7 8 9 10 11 12 13 14 15 16 17 18 19 20 21 22 23 24 25 26 27 28 29 30 31 32 33 34 35 36 37 38 39 40 41 42 43 44 45 46 47 48 49 50
000
ASUS44 KSJT 311510
RWRSJT
WEST CENTRAL TEXAS REGIONAL WEATHER ROUNDUP
NATIONAL WEATHER SERVICE SAN ANGELO TX
1000 AM CDT THU JUL 31 2014

NOTE: "FAIR" INDICATES FEW OR NO CLOUDS BELOW 12,000 FEET WITH NO
SIGNIFICANT WEATHER AND/OR OBSTRUCTIONS TO VISIBILITY.

TXZ049-054-064>066-071>073-076>078-098-099-113-114-127-128-139-140-
154-155-168>170-311600
...LOCATIONS ACROSS WEST CENTRAL TEXAS...

CITY           SKY/WX    TMP DP  RH WIND       PRES   REMARKS
SAN ANGELO     CLOUDY    74  63  68 N14       30.11R
ABILENE        CLOUDY    70  65  84 N16       30.10S
DYESS AFB      LGT RAIN  68  64  88 N15       30.11R
JUNCTION       CLOUDY    80  68  66 N9        30.06R
SWEETWATER     CLOUDY    68  63  82 N14       30.17S
BROWNWOOD      NOT AVBL
COLEMAN        CLOUDY    73  63  69 N16       30.08R
SONORA         MOSUNNY   77  66  69 NE9       30.13S
OZONA          FAIR      77  63  61 NE14G20   30.13S
BRADY          CLOUDY    73  64  73 N14       30.08R
$$

TEXAS PANHANDLE/OKLAHOMA PANHANDLE

CITY           SKY/WX    TMP DP  RH WIND       PRES   REMARKS
AMARILLO       SUNNY     67  54  63 N12       30.25R
BORGER         MOSUNNY   68  55  63 NE7       30.23S
CANADIAN       SUNNY     69  58  66 NE8       30.19R
DALHART        SUNNY     68  53  58 VRB3      30.28S
DUMAS          SUNNY     65  55  70 N7        30.26S
GUYMON         NOT AVBL
HEREFORD       MOSUNNY   67  55  63 N7        30.27R
PAMPA          MOSUNNY   65  54  66 NE13      30.23S
PERRYTON       SUNNY     68  59  71 N5        30.22S
$$

SOUTHERN PANHANDLE/SOUTH PLAINS/ROLLING PLAINS

CITY           SKY/WX    TMP DP  RH WIND       PRES   REMARKS
LUBBOCK        CLOUDY    67  57  70 N13       30.22S
SNYDER         CLOUDY    68  60  76 N15G21    30.17R
CHILDRESS      PTSUNNY   70  60  70 N13       30.16R
SEMINOLE       CLOUDY    69  56  64 N9G18     30.23R
$$

PERMIAN BASIN

CITY           SKY/WX    TMP DP  RH WIND       PRES   REMARKS
MIDLAND        CLOUDY    73  61  65 N12       30.18S
ODESSA         CLOUDY    71  60  68 NE8       30.20R
WINK           LGT RAIN  68  64  87 N8        30.20R
$$

FAR WEST/SOUTHWEST MOUNTAINS/TRANS PECOS

CITY           SKY/WX    TMP DP  RH WIND       PRES   REMARKS
ALPINE         CLOUDY    68  62  81 N12       30.32R
DRYDEN           N/A     84  67  56 N14G23    30.08R
EL PASO        CLOUDY    73  63  70 S6        30.22R
FORT STOCKTON  CLOUDY    72  62  71 N14       30.19F
GUADALUPE PASS CLOUDY    66  58  75 E22       30.31R
MARFA          PTSUNNY   70  61  73 N21       30.28S
PECOS          CLOUDY    71  62  71 N10       30.20S
$$

DALLAS/FORT WORTH METROPLEX

CITY           SKY/WX    TMP DP  RH WIND       PRES   REMARKS
DFW AIRPORT    CLOUDY    80  66  62 SW8       29.96R
FTW MEACHAM    LGT RAIN  74  70  87 N13       29.97R
DAL-EXECUTIVE  MOSUNNY   81  70  69 VRB7      29.96S
GRAND PRAIRIE  MOSUNNY   79  68  69 SW9       29.98R
ADDISON        CLOUDY    75  72  88 E6        29.97S
MESQUITE       CLOUDY    75  73  94 CALM        N/A
LANCASTER      PTSUNNY   80  70  72 S7        29.97S
$$

NORTH CENTRAL TEXAS

CITY           SKY/WX    TMP DP  RH WIND       PRES   REMARKS
SHRMAN/DENISON CLOUDY    70  68  92 N7        30.00R
GAINESVILLE    CLOUDY    66  66  99 N10       30.03R FOG
BRIDGEPORT     CLOUDY    73  65  77 N9        30.03R
DENTON         CLOUDY    71  70  96 NW10      29.98R
WAXAHACHIE     PTSUNNY   80  68  65 S10G17    29.97S
GRANBURY       CLOUDY    75  69  80 NW8       30.01S
$$

WESTERN NORTH TEXAS

CITY           SKY/WX    TMP DP  RH WIND       PRES   REMARKS
WICHITA FALLS  CLOUDY    70  64  83 N14       30.06R
VERNON         CLOUDY    70  64  81 N13       30.11R
BRECKENRIDGE   CLOUDY    72  69  90 NW8       30.06R FOG
COMANCHE       CLOUDY    73  65  77 NW10G17   30.05R
$$

CENTRAL AND SOUTH CENTRAL TEXAS

CITY           SKY/WX    TMP DP  RH WIND       PRES   REMARKS
AUSTIN/BERGSTM CLOUDY    82  73  74 SW6       29.99R
WACO           CLOUDY    80  73  79 S8        29.97R
HILLSBORO      MOSUNNY   82  69  64 SW12      29.97S
TEMPLE         PTSUNNY   81  70  69 S12       29.96F
KILLEEN-GRAY   CLOUDY    82  72  69 SW6       29.99S
FORT HOOD      PTSUNNY   84  72  67 S9        29.99S
GEORGETOWN     PTSUNNY   82  73  74 SW9       30.00S
LAGO VISTA     CLOUDY    81  71  71 W8        30.02S
SAN MARCOS     CLOUDY    82  70  65 SW12      30.00R
NEW BRAUNFELS  PTSUNNY   85  72  65 SW12      29.97R
RANDOLPH AFB   PTSUNNY   84  71  65 S10       29.99R
SAN ANTONIO    PTSUNNY   83  73  72 SW6       29.99R
STINSON        MOSUNNY   84  73  69 S9        29.96S
PLEASANTON     NOT AVBL
LA GRANGE      MOSUNNY   84  76  76 SW9       29.96S
GIDDINGS       CLOUDY    82  73  74 CALM      30.03R
$$

EAST TEXAS

CITY           SKY/WX    TMP DP  RH WIND       PRES   REMARKS
PARIS          CLOUDY    68  63  83 SE14      30.01F
CLARKSVILLE    CLOUDY    68  67  98 E7        30.03S
TYLER          CLOUDY    72  71  97 E9        30.01F
LONGVIEW       TSTM      68  66  93 CALM      30.05R
PALESTINE      NOT AVBL
NACOGDOCHES    CLOUDY    72  66  83 SE7       30.03S
$$

TEXAS HILL COUNTRY AND EDWARDS PLATEAU

CITY           SKY/WX    TMP DP  RH WIND       PRES   REMARKS
LLANO          CLOUDY    81  68  65 N10       30.05R
HORSESHOE BAY  CLOUDY    80  69  67 NW3       30.02S
KERRVILLE      CLOUDY    79  72  78 NW3       30.05R
FREDERICKSBRG  CLOUDY    78  69  73 W6        30.05R
ROCKSPRINGS    CLOUDY    77  70  78 CALM      30.10R
HONDO          CLOUDY    80  72  76 S6        30.01R
UVALDE         PTSUNNY   82  74  76 SE5       29.99R
DEL RIO        PTSUNNY   82  72  71 E6        29.99R
$$

SOUTHEAST TEXAS

CITY           SKY/WX    TMP DP  RH WIND       PRES   REMARKS
COLLEGE STN    PTSUNNY   82  74  76 SW7       30.00R
CALDWELL       PTSUNNY   81  75  83 S7        30.03R
CROCKETT       PTSUNNY   82  75  78 CALM      30.04S
BRENHAM        PTSUNNY   82  74  77 S6        29.99S
HUNTSVILLE     CLOUDY    82  74  76 SW6       30.01R
CONROE         PTSUNNY   80  75  84 SE5       30.01R
HOUSTON BUSH   PTSUNNY   83  74  74 S7        29.99R
HOUSTON HOBBY  PTSUNNY   86  74  67 S7        29.98S
PERLAND        MOSUNNY   85  73  67 S6        30.00S
WHARTON        PTSUNNY   84  76  75 S5        29.99R
$$

THE UPPER TEXAS COAST

CITY           SKY/WX    TMP DP  RH WIND       PRES   REMARKS
ORANGE         PTSUNNY   83  73  72 E7        30.02S
PORT ARTHUR    PTSUNNY   86  75  69 E8        30.00R
GALVESTON      PTSUNNY   88  76  67 S8        29.99S
ANGLETON       MOSUNNY   86  75  69 S10       29.99R
BAY CITY       PTSUNNY   87  78  72 S10       29.98S
$$

TEXAS COASTAL BEND, RIO GRANDE PLAINS DEEP SOUTH TEXAS

CITY           SKY/WX    TMP DP  RH WIND       PRES   REMARKS
VICTORIA       MOSUNNY   88  76  67 S18       29.97R
BEEVILLE       FAIR      87  73  61 S10G22    29.95S
ROCKPORT       MOSUNNY   86  78  77 S9G21     29.95R
PORT ARANSAS   MOSUNNY   84  78  83 S8        29.96R
PORT LAVACA    MOSUNNY   87  76  70 S14       29.96S
CORPUS CHRISTI MOSUNNY   89  74  60 S15       29.94R
KINGSVILLE NAS PTSUNNY   90  75  61 S17       29.93R
COTULLA        SUNNY     84  72  67 SE8       29.96R
LAREDO         SUNNY     87  72  61 S13       29.95S
BROWNSVILLE    MOSUNNY   89  75  63 S23       29.94S
PORT ISABEL    MOSUNNY   90  74  59 S17G25    29.93S
HEBBRONVILLE   SUNNY     85  71  61 S14G22    29.95S
MCALLEN        SUNNY     88  73  61 SE18G26   29.93R
WESLACO        SUNNY     89  71  55 S17G24    29.93R
FALFURRIAS     MOSUNNY   78  72  81 S16G22    29.93S
EDINBURG       SUNNY     90  72  54 S17       29.94R
$$


USA.gov is the U.S. government's official web portal to all federal, state and local government web resources and services.